| time (UTC) | temp F | wind direction | speed MPH | gust MPH | rain 1hr in | rain 24hr in | rain mn in | humidity % | barometer mb |
| 20260506173554 | 56 | 0 | 0.0 | 0.0 | 0.00 | 0.00 | 0.00 | 89 | 1021.0 |
| 20260506173110 | 56 | 0 | 0.0 | 0.0 | 0.00 | 0.00 | 0.00 | 88 | 1020.9 |
| 20260506173037 | 56 | 0 | 0.0 | 0.0 | 0.00 | 0.00 | 0.00 | 88 | 1020.9 |
| 20260506172603 | 56 | 247 | 1.0 | 4.0 | 0.00 | 0.00 | 0.00 | 88 | 1020.9 |
| 20260506172520 | 56 | 247 | 1.0 | 4.0 | 0.00 | 0.00 | 0.00 | 88 | 1020.9 |
| 20260506172056 | 56 | 0 | 0.0 | 4.0 | 0.00 | 0.00 | 0.00 | 87 | 1020.9 |
| 20260506172004 | 56 | 0 | 0.0 | 4.0 | 0.00 | 0.00 | 0.00 | 88 | 1020.9 |
| 20260506171549 | 56 | 0 | 0.0 | 4.0 | 0.00 | 0.00 | 0.00 | 88 | 1020.8 |
| 20260506171446 | 56 | 0 | 0.0 | 4.0 | 0.00 | 0.00 | 0.00 | 88 | 1020.9 |
| 20260506171041 | 56 | 0 | 0.0 | 2.0 | 0.00 | 0.00 | 0.00 | 88 | 1020.8 |
| 20260506170929 | 56 | 0 | 0.0 | 2.0 | 0.00 | 0.00 | 0.00 | 88 | 1020.8 |
| 20260506170535 | 56 | 0 | 0.0 | 2.0 | 0.00 | 0.00 | 0.00 | 88 | 1020.9 |
| 20260506170413 | 56 | 0 | 0.0 | 2.0 | 0.00 | 0.00 | 0.00 | 88 | 1020.9 |
| 20260506170028 | 56 | 306 | 1.0 | 2.0 | 0.00 | 0.00 | 0.00 | 88 | 1020.9 |
| 20260506165855 | 56 | 306 | 1.0 | 2.0 | 0.00 | 0.00 | 0.00 | 88 | 1020.8 |
| 20260506165521 | 56 | 0 | 0.0 | 0.0 | 0.00 | 0.00 | 0.00 | 89 | 1020.8 |
| 20260506165338 | 56 | 0 | 0.0 | 0.0 | 0.00 | 0.00 | 0.00 | 89 | 1020.7 |
| 20260506164821 | 56 | 0 | 0.0 | 0.0 | 0.00 | 0.00 | 0.00 | 89 | 1020.8 |
| 20260506164507 | 56 | 0 | 0.0 | 0.0 | 0.00 | 0.00 | 0.00 | 89 | 1020.8 |
| 20260506164305 | 55 | 0 | 0.0 | 0.0 | 0.00 | 0.00 | 0.00 | 89 | 1020.7 |
| 20260506163959 | 55 | 0 | 0.0 | 0.0 | 0.00 | 0.00 | 0.00 | 90 | 1020.6 |
| 20260506163747 | 55 | 0 | 0.0 | 0.0 | 0.00 | 0.00 | 0.00 | 90 | 1020.5 |
| 20260506163452 | 55 | 0 | 0.0 | 0.0 | 0.00 | 0.00 | 0.00 | 90 | 1020.7 |
| 20260506163230 | 55 | 0 | 0.0 | 0.0 | 0.00 | 0.00 | 0.00 | 90 | 1020.7 |
| 20260506162945 | 55 | 0 | 0.0 | 0.0 | 0.00 | 0.00 | 0.00 | 90 | 1020.7 |
| 20260506162713 | 55 | 0 | 0.0 | 0.0 | 0.00 | 0.00 | 0.00 | 90 | 1020.7 |
| 20260506161931 | 55 | 0 | 0.0 | 3.0 | 0.00 | 0.00 | 0.00 | 91 | 1020.6 |
| 20260506161639 | 55 | 0 | 0.0 | 3.0 | 0.00 | 0.00 | 0.00 | 91 | 1020.6 |
| 20260506161425 | 55 | 0 | 0.0 | 3.0 | 0.00 | 0.00 | 0.00 | 91 | 1020.6 |
| 20260506161122 | 55 | 306 | 1.0 | 3.0 | 0.00 | 0.00 | 0.00 | 91 | 1020.6 |
| 20260506160917 | 55 | 306 | 1.0 | 3.0 | 0.00 | 0.00 | 0.00 | 91 | 1020.6 |
| 20260506160605 | 55 | 0 | 0.0 | 0.0 | 0.00 | 0.00 | 0.00 | 91 | 1020.5 |
| 20260506160410 | 55 | 0 | 0.0 | 0.0 | 0.00 | 0.00 | 0.00 | 91 | 1020.4 |
| 20260506160048 | 55 | 0 | 0.0 | 0.0 | 0.00 | 0.00 | 0.00 | 91 | 1020.4 |
| 20260506155903 | 55 | 0 | 0.0 | 0.0 | 0.00 | 0.00 | 0.00 | 91 | 1020.4 |
| 20260506155531 | 55 | 0 | 0.0 | 0.0 | 0.00 | 0.00 | 0.00 | 91 | 1020.3 |
| 20260506155356 | 55 | 0 | 0.0 | 0.0 | 0.00 | 0.00 | 0.00 | 91 | 1020.3 |
| 20260506155015 | 55 | 0 | 0.0 | 0.0 | 0.00 | 0.00 | 0.00 | 91 | 1020.2 |
| 20260506154849 | 55 | 0 | 0.0 | 0.0 | 0.00 | 0.00 | 0.00 | 91 | 1020.3 |
| 20260506154458 | 54 | 0 | 0.0 | 0.0 | 0.00 | 0.00 | 0.00 | 92 | 1020.1 |
| 20260506154342 | 54 | 0 | 0.0 | 0.0 | 0.00 | 0.00 | 0.00 | 92 | 1020.2 |
| 20260506153940 | 54 | 0 | 0.0 | 0.0 | 0.00 | 0.00 | 0.00 | 92 | 1020.1 |
| 20260506153835 | 54 | 0 | 0.0 | 0.0 | 0.00 | 0.00 | 0.00 | 92 | 1020.1 |
| 20260506153423 | 54 | 0 | 0.0 | 0.0 | 0.00 | 0.00 | 0.00 | 92 | 1020.1 |
| 20260506153328 | 54 | 0 | 0.0 | 0.0 | 0.00 | 0.00 | 0.00 | 92 | 1020.1 |
| 20260506152906 | 54 | 0 | 0.0 | 0.0 | 0.00 | 0.00 | 0.00 | 93 | 1020.0 |
| 20260506152821 | 54 | 0 | 0.0 | 0.0 | 0.00 | 0.00 | 0.00 | 93 | 1020.0 |
| 20260506152349 | 54 | 0 | 0.0 | 0.0 | 0.00 | 0.00 | 0.00 | 93 | 1019.9 |
| 20260506152314 | 54 | 0 | 0.0 | 0.0 | 0.00 | 0.00 | 0.00 | 93 | 1020.0 |
| 20260506151834 | 54 | 0 | 0.0 | 5.0 | 0.00 | 0.00 | 0.00 | 93 | 1020.1 |
| 20260506151807 | 54 | 0 | 0.0 | 5.0 | 0.00 | 0.00 | 0.00 | 93 | 1020.1 |
| 20260506151315 | 54 | 0 | 0.0 | 5.0 | 0.00 | 0.00 | 0.00 | 93 | 1020.0 |
| 20260506151302 | 54 | 0 | 0.0 | 5.0 | 0.00 | 0.00 | 0.00 | 93 | 1020.0 |
| 20260506150753 | 54 | 0 | 0.0 | 5.0 | 0.00 | 0.00 | 0.00 | 94 | 1019.8 |
| 20260506150241 | 54 | 142 | 4.0 | 5.0 | 0.00 | 0.00 | 0.00 | 94 | 1019.7 |
| 20260506145739 | 54 | 0 | 0.0 | 0.0 | 0.00 | 0.00 | 0.00 | 94 | 1019.9 |
| 20260506145724 | 54 | 0 | 0.0 | 0.0 | 0.00 | 0.00 | 0.00 | 94 | 1020.0 |
| 20260506145207 | 54 | 0 | 0.0 | 0.0 | 0.00 | 0.00 | 0.00 | 94 | 1020.0 |
| 20260506144725 | 54 | 0 | 0.0 | 0.0 | 0.00 | 0.00 | 0.00 | 94 | 1020.0 |
| 20260506144651 | 54 | 0 | 0.0 | 0.0 | 0.00 | 0.00 | 0.00 | 94 | 1020.0 |
| 20260506144218 | 54 | 0 | 0.0 | 0.0 | 0.00 | 0.00 | 0.00 | 94 | 1020.2 |
| 20260506144133 | 53 | 0 | 0.0 | 0.0 | 0.00 | 0.00 | 0.00 | 94 | 1020.2 |
| 20260506143711 | 53 | 0 | 0.0 | 0.0 | 0.00 | 0.00 | 0.00 | 94 | 1020.1 |
| 20260506143617 | 53 | 0 | 0.0 | 0.0 | 0.00 | 0.00 | 0.00 | 94 | 1020.1 |
| 20260506143205 | 53 | 0 | 0.0 | 0.0 | 0.00 | 0.00 | 0.00 | 94 | 1020.1 |
| 20260506143059 | 53 | 0 | 0.0 | 0.0 | 0.00 | 0.00 | 0.00 | 94 | 1020.1 |
| 20260506142657 | 53 | 0 | 0.0 | 0.0 | 0.00 | 0.00 | 0.00 | 94 | 1020.0 |
| 20260506142543 | 53 | 0 | 0.0 | 0.0 | 0.00 | 0.00 | 0.00 | 94 | 1020.0 |
| 20260506142150 | 53 | 0 | 0.0 | 0.0 | 0.00 | 0.00 | 0.00 | 94 | 1020.0 |
| 20260506142025 | 53 | 0 | 0.0 | 0.0 | 0.00 | 0.00 | 0.00 | 94 | 1020.0 |
| 20260506141643 | 53 | 0 | 0.0 | 0.0 | 0.00 | 0.00 | 0.00 | 94 | 1020.1 |
| 20260506141508 | 53 | 0 | 0.0 | 0.0 | 0.00 | 0.00 | 0.00 | 94 | 1020.1 |
| 20260506141136 | 53 | 0 | 0.0 | 0.0 | 0.00 | 0.00 | 0.00 | 94 | 1020.1 |
| 20260506140951 | 53 | 0 | 0.0 | 0.0 | 0.00 | 0.00 | 0.00 | 94 | 1019.9 |
| 20260506140629 | 53 | 0 | 0.0 | 0.0 | 0.00 | 0.00 | 0.00 | 94 | 1019.9 |
| 20260506140434 | 53 | 0 | 0.0 | 0.0 | 0.00 | 0.00 | 0.00 | 94 | 1019.8 |
| 20260506140122 | 53 | 0 | 0.0 | 0.0 | 0.00 | 0.00 | 0.00 | 94 | 1019.8 |
| 20260506135917 | 53 | 0 | 0.0 | 0.0 | 0.00 | 0.00 | 0.00 | 94 | 1019.7 |
| 20260506135615 | 53 | 0 | 0.0 | 0.0 | 0.00 | 0.00 | 0.00 | 94 | 1019.5 |
| 20260506135400 | 53 | 0 | 0.0 | 0.0 | 0.00 | 0.00 | 0.00 | 94 | 1019.5 |
| 20260506135108 | 53 | 0 | 0.0 | 0.0 | 0.00 | 0.00 | 0.00 | 94 | 1019.5 |
| 20260506134843 | 53 | 0 | 0.0 | 0.0 | 0.00 | 0.00 | 0.00 | 94 | 1019.5 |
| 20260506134601 | 53 | 0 | 0.0 | 0.0 | 0.00 | 0.00 | 0.00 | 94 | 1019.5 |
| 20260506134326 | 53 | 0 | 0.0 | 0.0 | 0.00 | 0.00 | 0.00 | 94 | 1019.5 |
| 20260506134054 | 53 | 0 | 0.0 | 0.0 | 0.00 | 0.00 | 0.00 | 94 | 1019.4 |
| 20260506133809 | 53 | 0 | 0.0 | 2.0 | 0.00 | 0.00 | 0.00 | 94 | 1019.4 |
| 20260506133547 | 53 | 0 | 0.0 | 2.0 | 0.00 | 0.00 | 0.00 | 94 | 1019.3 |
| 20260506133252 | 53 | 0 | 0.0 | 2.0 | 0.00 | 0.00 | 0.00 | 94 | 1019.2 |
| 20260506133040 | 53 | 0 | 0.0 | 2.0 | 0.00 | 0.00 | 0.00 | 94 | 1019.2 |
| 20260506132735 | 53 | 0 | 0.0 | 2.0 | 0.00 | 0.00 | 0.00 | 94 | 1019.3 |
| 20260506132533 | 53 | 0 | 0.0 | 2.0 | 0.00 | 0.00 | 0.00 | 94 | 1019.3 |
| 20260506132218 | 53 | 326 | 1.0 | 2.0 | 0.00 | 0.00 | 0.00 | 94 | 1019.4 |
| 20260506132026 | 53 | 0 | 0.0 | 0.0 | 0.00 | 0.00 | 0.00 | 94 | 1019.4 |
| 20260506131701 | 53 | 0 | 0.0 | 0.0 | 0.00 | 0.00 | 0.00 | 94 | 1019.4 |
| 20260506131144 | 53 | 0 | 0.0 | 0.0 | 0.00 | 0.00 | 0.00 | 94 | 1019.3 |
| 20260506130627 | 53 | 0 | 0.0 | 0.0 | 0.00 | 0.00 | 0.00 | 94 | 1019.1 |
| 20260506130505 | 53 | 0 | 0.0 | 0.0 | 0.00 | 0.00 | 0.00 | 94 | 1019.1 |
| 20260506125958 | 53 | 0 | 0.0 | 0.0 | 0.00 | 0.00 | 0.00 | 94 | 1019.1 |
| 20260506125553 | 53 | 0 | 0.0 | 0.0 | 0.00 | 0.00 | 0.00 | 94 | 1019.0 |
| 20260506125036 | 53 | 0 | 0.0 | 0.0 | 0.00 | 0.00 | 0.00 | 94 | 1019.1 |
| 20260506124944 | 53 | 0 | 0.0 | 0.0 | 0.00 | 0.00 | 0.00 | 94 | 1019.0 |
| 20260506124440 | 53 | 0 | 0.0 | 0.0 | 0.00 | 0.00 | 0.00 | 94 | 1019.0 |
| 20260506124002 | 53 | 0 | 0.0 | 0.0 | 0.00 | 0.00 | 0.00 | 94 | 1019.0 |
| 20260506123930 | 53 | 0 | 0.0 | 0.0 | 0.00 | 0.00 | 0.00 | 94 | 1019.0 |
| 20260506123423 | 53 | 0 | 0.0 | 0.0 | 0.00 | 0.00 | 0.00 | 95 | 1018.9 |
| 20260506122928 | 53 | 0 | 0.0 | 0.0 | 0.00 | 0.00 | 0.00 | 95 | 1018.9 |
| 20260506122917 | 53 | 0 | 0.0 | 0.0 | 0.00 | 0.00 | 0.00 | 95 | 1018.8 |
| 20260506122409 | 53 | 0 | 0.0 | 0.0 | 0.00 | 0.00 | 0.00 | 95 | 1018.8 |
| 20260506121902 | 53 | 0 | 0.0 | 0.0 | 0.00 | 0.00 | 0.00 | 95 | 1018.9 |
| 20260506121854 | 53 | 0 | 0.0 | 0.0 | 0.00 | 0.00 | 0.00 | 95 | 1018.9 |
| 20260506121355 | 53 | 0 | 0.0 | 0.0 | 0.00 | 0.00 | 0.00 | 95 | 1018.9 |
| 20260506121337 | 53 | 0 | 0.0 | 0.0 | 0.00 | 0.00 | 0.00 | 95 | 1018.9 |
| 20260506120848 | 53 | 0 | 0.0 | 0.0 | 0.00 | 0.00 | 0.00 | 95 | 1018.8 |
| 20260506120820 | 53 | 0 | 0.0 | 0.0 | 0.00 | 0.00 | 0.00 | 95 | 1018.8 |
| 20260506120341 | 53 | 0 | 0.0 | 0.0 | 0.00 | 0.00 | 0.00 | 95 | 1018.8 |
| 20260506120303 | 53 | 0 | 0.0 | 0.0 | 0.00 | 0.00 | 0.00 | 95 | 1019.0 |
| 20260506115746 | 53 | 0 | 0.0 | 0.0 | 0.00 | 0.00 | 0.00 | 95 | 1018.9 |
| 20260506115327 | 53 | 0 | 0.0 | 0.0 | 0.00 | 0.00 | 0.00 | 95 | 1019.0 |
| 20260506114820 | 53 | 0 | 0.0 | 0.0 | 0.00 | 0.00 | 0.00 | 95 | 1019.0 |
| 20260506114712 | 53 | 0 | 0.0 | 0.0 | 0.00 | 0.00 | 0.00 | 95 | 1019.0 |
| 20260506114313 | 53 | 0 | 0.0 | 0.0 | 0.00 | 0.00 | 0.00 | 95 | 1018.9 |
| 20260506114155 | 53 | 0 | 0.0 | 0.0 | 0.00 | 0.00 | 0.00 | 95 | 1018.9 |
| 20260506113806 | 53 | 0 | 0.0 | 0.0 | 0.00 | 0.00 | 0.00 | 95 | 1018.8 |
| 20260506113638 | 53 | 0 | 0.0 | 0.0 | 0.00 | 0.00 | 0.00 | 95 | 1018.7 |
| 20260506113300 | 53 | 0 | 0.0 | 0.0 | 0.00 | 0.00 | 0.00 | 95 | 1018.7 |
| 20260506113121 | 53 | 0 | 0.0 | 0.0 | 0.00 | 0.00 | 0.00 | 95 | 1018.7 |
| 20260506112752 | 53 | 0 | 0.0 | 0.0 | 0.00 | 0.00 | 0.00 | 95 | 1018.7 |
| 20260506112604 | 53 | 0 | 0.0 | 0.0 | 0.00 | 0.00 | 0.00 | 95 | 1018.7 |
| 20260506112245 | 53 | 0 | 0.0 | 0.0 | 0.00 | 0.00 | 0.00 | 95 | 1018.7 |
| 20260506112047 | 53 | 0 | 0.0 | 0.0 | 0.00 | 0.00 | 0.00 | 95 | 1018.7 |
| 20260506111738 | 53 | 0 | 0.0 | 0.0 | 0.00 | 0.00 | 0.00 | 95 | 1018.8 |
| 20260506111530 | 53 | 0 | 0.0 | 0.0 | 0.00 | 0.00 | 0.00 | 94 | 1018.8 |
| 20260506111231 | 53 | 0 | 0.0 | 0.0 | 0.00 | 0.00 | 0.00 | 95 | 1018.7 |
| 20260506110724 | 53 | 0 | 0.0 | 0.0 | 0.00 | 0.00 | 0.00 | 95 | 1018.7 |
| 20260506110456 | 53 | 0 | 0.0 | 0.0 | 0.00 | 0.00 | 0.00 | 95 | 1018.6 |
| 20260506110217 | 53 | 0 | 0.0 | 0.0 | 0.00 | 0.00 | 0.00 | 95 | 1018.6 |
| 20260506105710 | 53 | 0 | 0.0 | 0.0 | 0.00 | 0.00 | 0.00 | 95 | 1018.5 |
| 20260506105422 | 53 | 0 | 0.0 | 0.0 | 0.00 | 0.00 | 0.00 | 94 | 1018.5 |
| 20260506105203 | 53 | 0 | 0.0 | 0.0 | 0.00 | 0.00 | 0.00 | 94 | 1018.5 |
| 20260506104905 | 53 | 0 | 0.0 | 0.0 | 0.00 | 0.00 | 0.00 | 94 | 1018.5 |
| 20260506104348 | 53 | 0 | 0.0 | 0.0 | 0.00 | 0.00 | 0.00 | 94 | 1018.5 |
| 20260506103831 | 53 | 0 | 0.0 | 0.0 | 0.00 | 0.00 | 0.00 | 94 | 1018.3 |
| 20260506103642 | 53 | 0 | 0.0 | 0.0 | 0.00 | 0.00 | 0.00 | 94 | 1018.4 |
| 20260506103314 | 53 | 0 | 0.0 | 0.0 | 0.00 | 0.00 | 0.00 | 94 | 1018.3 |
| 20260506103135 | 53 | 0 | 0.0 | 0.0 | 0.00 | 0.00 | 0.00 | 94 | 1018.4 |
| 20260506102630 | 53 | 0 | 0.0 | 0.0 | 0.00 | 0.00 | 0.00 | 94 | 1018.4 |
| 20260506102240 | 53 | 0 | 0.0 | 0.0 | 0.00 | 0.00 | 0.00 | 94 | 1018.4 |
| 20260506102121 | 53 | 0 | 0.0 | 0.0 | 0.00 | 0.00 | 0.00 | 94 | 1018.4 |
| 20260506101723 | 53 | 0 | 0.0 | 0.0 | 0.00 | 0.00 | 0.00 | 93 | 1018.3 |
| 20260506101614 | 53 | 0 | 0.0 | 0.0 | 0.00 | 0.00 | 0.00 | 93 | 1018.3 |
| 20260506101206 | 53 | 0 | 0.0 | 0.0 | 0.00 | 0.00 | 0.00 | 93 | 1018.2 |
| 20260506101107 | 53 | 0 | 0.0 | 0.0 | 0.00 | 0.00 | 0.00 | 93 | 1018.2 |
| 20260506100650 | 53 | 0 | 0.0 | 0.0 | 0.00 | 0.00 | 0.00 | 93 | 1018.0 |
| 20260506100600 | 53 | 0 | 0.0 | 0.0 | 0.00 | 0.00 | 0.00 | 93 | 1018.1 |
| 20260506100132 | 53 | 0 | 0.0 | 0.0 | 0.00 | 0.00 | 0.00 | 93 | 1018.1 |
| 20260506100053 | 53 | 0 | 0.0 | 0.0 | 0.00 | 0.00 | 0.00 | 93 | 1018.2 |
| 20260506095615 | 53 | 0 | 0.0 | 0.0 | 0.00 | 0.00 | 0.00 | 93 | 1018.1 |
| 20260506095058 | 53 | 0 | 0.0 | 0.0 | 0.00 | 0.00 | 0.00 | 93 | 1018.1 |
| 20260506095039 | 53 | 0 | 0.0 | 0.0 | 0.00 | 0.00 | 0.00 | 93 | 1018.1 |
| 20260506094532 | 53 | 0 | 0.0 | 0.0 | 0.00 | 0.00 | 0.00 | 93 | 1018.1 |
| 20260506094024 | 53 | 0 | 0.0 | 0.0 | 0.00 | 0.00 | 0.00 | 93 | 1018.1 |
| 20260506093507 | 53 | 0 | 0.0 | 0.0 | 0.00 | 0.00 | 0.00 | 93 | 1018.0 |
| 20260506092950 | 53 | 0 | 0.0 | 0.0 | 0.00 | 0.00 | 0.00 | 93 | 1017.9 |
| 20260506092504 | 53 | 0 | 0.0 | 0.0 | 0.00 | 0.00 | 0.00 | 93 | 1017.9 |
| 20260506092433 | 53 | 0 | 0.0 | 0.0 | 0.00 | 0.00 | 0.00 | 93 | 1017.9 |
| 20260506091957 | 53 | 0 | 0.0 | 0.0 | 0.00 | 0.00 | 0.00 | 93 | 1017.9 |
| 20260506091918 | 53 | 0 | 0.0 | 0.0 | 0.00 | 0.00 | 0.00 | 93 | 1017.9 |
| 20260506091450 | 53 | 0 | 0.0 | 0.0 | 0.00 | 0.00 | 0.00 | 93 | 1017.8 |
| 20260506091359 | 54 | 0 | 0.0 | 0.0 | 0.00 | 0.00 | 0.00 | 93 | 1017.8 |
| 20260506090943 | 53 | 0 | 0.0 | 0.0 | 0.00 | 0.00 | 0.00 | 93 | 1017.7 |
| 20260506090842 | 53 | 0 | 0.0 | 0.0 | 0.00 | 0.00 | 0.00 | 93 | 1017.8 |
| 20260506090436 | 54 | 0 | 0.0 | 0.0 | 0.00 | 0.00 | 0.00 | 93 | 1017.8 |
| 20260506090325 | 53 | 0 | 0.0 | 0.0 | 0.00 | 0.00 | 0.00 | 93 | 1017.8 |
| 20260506085929 | 54 | 0 | 0.0 | 0.0 | 0.00 | 0.00 | 0.00 | 93 | 1017.8 |
| 20260506085808 | 54 | 0 | 0.0 | 0.0 | 0.00 | 0.00 | 0.00 | 93 | 1017.7 |
| 20260506085423 | 54 | 0 | 0.0 | 0.0 | 0.00 | 0.00 | 0.00 | 93 | 1017.8 |
| 20260506085251 | 54 | 0 | 0.0 | 0.0 | 0.00 | 0.00 | 0.00 | 93 | 1017.8 |
| 20260506084915 | 54 | 0 | 0.0 | 0.0 | 0.00 | 0.00 | 0.00 | 93 | 1017.7 |
| 20260506084734 | 54 | 0 | 0.0 | 0.0 | 0.00 | 0.00 | 0.00 | 93 | 1017.8 |
| 20260506084408 | 54 | 0 | 0.0 | 0.0 | 0.00 | 0.00 | 0.00 | 93 | 1017.8 |
| 20260506084217 | 54 | 0 | 0.0 | 0.0 | 0.00 | 0.00 | 0.00 | 93 | 1017.7 |
| 20260506083901 | 54 | 0 | 0.0 | 0.0 | 0.00 | 0.00 | 0.00 | 93 | 1017.6 |
| 20260506083700 | 54 | 0 | 0.0 | 0.0 | 0.00 | 0.00 | 0.00 | 93 | 1017.6 |
| 20260506083354 | 54 | 0 | 0.0 | 0.0 | 0.00 | 0.00 | 0.00 | 93 | 1017.7 |
| 20260506082847 | 54 | 0 | 0.0 | 0.0 | 0.00 | 0.00 | 0.00 | 94 | 1017.6 |
| 20260506082626 | 54 | 0 | 0.0 | 0.0 | 0.00 | 0.00 | 0.00 | 94 | 1017.6 |
| 20260506082110 | 54 | 0 | 0.0 | 0.0 | 0.00 | 0.00 | 0.00 | 94 | 1017.6 |
| 20260506081833 | 54 | 0 | 0.0 | 0.0 | 0.00 | 0.00 | 0.00 | 93 | 1017.6 |
| 20260506081552 | 54 | 0 | 0.0 | 0.0 | 0.00 | 0.00 | 0.00 | 93 | 1017.6 |
| 20260506081326 | 54 | 0 | 0.0 | 0.0 | 0.00 | 0.00 | 0.00 | 93 | 1017.5 |
| 20260506081035 | 54 | 0 | 0.0 | 0.0 | 0.00 | 0.00 | 0.00 | 93 | 1017.5 |
| 20260506080819 | 54 | 0 | 0.0 | 0.0 | 0.00 | 0.00 | 0.00 | 93 | 1017.6 |
| 20260506080518 | 54 | 0 | 0.0 | 0.0 | 0.00 | 0.00 | 0.00 | 93 | 1017.5 |
| 20260506080312 | 54 | 0 | 0.0 | 0.0 | 0.00 | 0.00 | 0.00 | 93 | 1017.5 |
| 20260506073336 | 54 | 0 | 0.0 | 0.0 | 0.00 | 0.00 | 0.00 | 92 | 1017.1 |
| 20260506073230 | 54 | 0 | 0.0 | 0.0 | 0.00 | 0.00 | 0.00 | 92 | 1017.2 |
| 20260506072819 | 54 | 0 | 0.0 | 0.0 | 0.00 | 0.00 | 0.00 | 92 | 1017.1 |
| 20260506072723 | 54 | 0 | 0.0 | 0.0 | 0.00 | 0.00 | 0.00 | 92 | 1017.1 |
| 20260506072305 | 54 | 0 | 0.0 | 0.0 | 0.00 | 0.00 | 0.00 | 92 | 1016.9 |
| 20260506072216 | 54 | 0 | 0.0 | 0.0 | 0.00 | 0.00 | 0.00 | 92 | 1017.0 |
| 20260506071745 | 54 | 0 | 0.0 | 0.0 | 0.00 | 0.00 | 0.00 | 92 | 1016.9 |
| 20260506071709 | 54 | 0 | 0.0 | 0.0 | 0.00 | 0.00 | 0.00 | 92 | 1016.9 |
| 20260506071228 | 54 | 0 | 0.0 | 0.0 | 0.00 | 0.00 | 0.00 | 92 | 1016.8 |
| 20260506071203 | 54 | 0 | 0.0 | 0.0 | 0.00 | 0.00 | 0.00 | 92 | 1016.9 |
| 20260506070711 | 54 | 0 | 0.0 | 0.0 | 0.00 | 0.01 | 0.00 | 92 | 1016.8 |
| 20260506070655 | 54 | 0 | 0.0 | 0.0 | 0.00 | 0.01 | 0.00 | 92 | 1016.8 |
| 20260506070154 | 54 | 0 | 0.0 | 0.0 | 0.00 | 0.01 | 0.00 | 92 | 1016.8 |
| 20260506062455 | 54 | 0 | 0.0 | 0.0 | 0.00 | 0.01 | 0.00 | 92 | 1016.8 |
| 20260506062052 | 54 | 0 | 0.0 | 0.0 | 0.00 | 0.01 | 0.00 | 92 | 1016.8 |
| 20260506061938 | 54 | 0 | 0.0 | 0.0 | 0.00 | 0.01 | 0.00 | 92 | 1016.8 |
| 20260506061545 | 54 | 0 | 0.0 | 0.0 | 0.00 | 0.01 | 0.00 | 92 | 1016.8 |
| 20260506061421 | 54 | 0 | 0.0 | 0.0 | 0.00 | 0.01 | 0.00 | 92 | 1016.8 |
| 20260506061038 | 54 | 0 | 0.0 | 0.0 | 0.00 | 0.01 | 0.00 | 92 | 1016.8 |
| 20260506060532 | 54 | 0 | 0.0 | 0.0 | 0.00 | 0.01 | 0.00 | 92 | 1016.8 |
| 20260506060347 | 54 | 0 | 0.0 | 0.0 | 0.00 | 0.01 | 0.00 | 93 | 1016.7 |
| 20260506051056 | 54 | 0 | 0.0 | 0.0 | 0.00 | 0.01 | 0.00 | 92 | 1016.7 |
| 20260506050914 | 54 | 0 | 0.0 | 0.0 | 0.00 | 0.01 | 0.00 | 92 | 1016.6 |
| 20260506050539 | 54 | 0 | 0.0 | 0.0 | 0.00 | 0.01 | 0.00 | 92 | 1016.6 |
| 20260506050407 | 54 | 0 | 0.0 | 0.0 | 0.00 | 0.01 | 0.00 | 92 | 1016.6 |
| 20260506044948 | 54 | 0 | 0.0 | 0.0 | 0.00 | 0.01 | 0.00 | 93 | 1016.5 |
| 20260506044846 | 54 | 0 | 0.0 | 0.0 | 0.00 | 0.01 | 0.00 | 93 | 1016.5 |
| 20260506044432 | 54 | 0 | 0.0 | 0.0 | 0.00 | 0.01 | 0.00 | 93 | 1016.5 |
| 20260506044339 | 54 | 0 | 0.0 | 0.0 | 0.00 | 0.01 | 0.00 | 93 | 1016.5 |
| 20260506043914 | 55 | 0 | 0.0 | 0.0 | 0.00 | 0.01 | 0.00 | 93 | 1016.5 |
| 20260506043832 | 54 | 0 | 0.0 | 0.0 | 0.00 | 0.01 | 0.00 | 93 | 1016.5 |
| 20260506043358 | 55 | 0 | 0.0 | 0.0 | 0.00 | 0.01 | 0.00 | 93 | 1016.4 |
| 20260506043325 | 54 | 0 | 0.0 | 0.0 | 0.00 | 0.01 | 0.00 | 93 | 1016.4 |
| 20260506042840 | 54 | 0 | 0.0 | 0.0 | 0.00 | 0.01 | 0.00 | 93 | 1016.3 |
| 20260506042818 | 54 | 0 | 0.0 | 0.0 | 0.00 | 0.01 | 0.00 | 93 | 1016.3 |
| 20260506042323 | 55 | 0 | 0.0 | 0.0 | 0.00 | 0.01 | 0.00 | 93 | 1016.2 |
| 20260506042310 | 55 | 0 | 0.0 | 0.0 | 0.00 | 0.01 | 0.00 | 93 | 1016.2 |
| 20260506041804 | 55 | 0 | 0.0 | 0.0 | 0.00 | 0.01 | 0.00 | 93 | 1016.1 |
| 20260506041250 | 55 | 0 | 0.0 | 0.0 | 0.00 | 0.01 | 0.00 | 93 | 1016.0 |
| 20260506040750 | 55 | 0 | 0.0 | 0.0 | 0.00 | 0.01 | 0.00 | 93 | 1015.9 |
| 20260506040732 | 55 | 0 | 0.0 | 0.0 | 0.00 | 0.01 | 0.00 | 93 | 1015.9 |
| 20260506040242 | 55 | 0 | 0.0 | 0.0 | 0.00 | 0.01 | 0.00 | 93 | 1015.9 |
| 20260506040215 | 55 | 0 | 0.0 | 0.0 | 0.00 | 0.01 | 0.00 | 93 | 1015.8 |
| 20260506035735 | 55 | 0 | 0.0 | 0.0 | 0.00 | 0.01 | 0.00 | 93 | 1015.8 |
| 20260506035658 | 55 | 0 | 0.0 | 0.0 | 0.00 | 0.01 | 0.00 | 93 | 1015.8 |
| 20260506035228 | 55 | 0 | 0.0 | 0.0 | 0.00 | 0.01 | 0.00 | 93 | 1015.6 |
| 20260506035141 | 55 | 0 | 0.0 | 0.0 | 0.00 | 0.01 | 0.00 | 93 | 1015.6 |
| 20260506034721 | 55 | 0 | 0.0 | 0.0 | 0.00 | 0.01 | 0.00 | 93 | 1015.8 |
| 20260506034625 | 55 | 0 | 0.0 | 0.0 | 0.00 | 0.01 | 0.00 | 93 | 1015.8 |
| 20260506034214 | 55 | 0 | 0.0 | 0.0 | 0.00 | 0.01 | 0.00 | 94 | 1015.7 |
| 20260506034107 | 55 | 0 | 0.0 | 0.0 | 0.00 | 0.01 | 0.00 | 94 | 1015.7 |
| 20260506033707 | 55 | 0 | 0.0 | 0.0 | 0.00 | 0.01 | 0.00 | 94 | 1015.5 |
| 20260506033200 | 55 | 0 | 0.0 | 0.0 | 0.00 | 0.01 | 0.00 | 94 | 1015.5 |
| 20260506033033 | 55 | 0 | 0.0 | 0.0 | 0.00 | 0.01 | 0.00 | 94 | 1015.5 |
| 20260506032653 | 55 | 0 | 0.0 | 0.0 | 0.00 | 0.01 | 0.00 | 94 | 1015.6 |
| 20260506032516 | 55 | 0 | 0.0 | 0.0 | 0.00 | 0.01 | 0.00 | 94 | 1015.6 |
| 20260506031959 | 55 | 0 | 0.0 | 0.0 | 0.00 | 0.01 | 0.00 | 94 | 1015.6 |
| 20260506031639 | 55 | 0 | 0.0 | 0.0 | 0.00 | 0.01 | 0.00 | 94 | 1015.6 |
| 20260506031442 | 55 | 0 | 0.0 | 0.0 | 0.00 | 0.01 | 0.00 | 94 | 1015.6 |
| 20260506031133 | 55 | 0 | 0.0 | 0.0 | 0.00 | 0.01 | 0.00 | 94 | 1015.5 |
| 20260506030925 | 55 | 0 | 0.0 | 0.0 | 0.00 | 0.01 | 0.00 | 94 | 1015.5 |
| 20260506030625 | 55 | 0 | 0.0 | 0.0 | 0.00 | 0.01 | 0.00 | 94 | 1015.5 |
| 20260506030408 | 55 | 0 | 0.0 | 0.0 | 0.00 | 0.01 | 0.00 | 93 | 1015.5 |
| 20260506030118 | 55 | 0 | 0.0 | 0.0 | 0.00 | 0.01 | 0.00 | 93 | 1015.5 |
| 20260506025852 | 55 | 0 | 0.0 | 4.0 | 0.00 | 0.01 | 0.00 | 93 | 1015.4 |
| 20260506025611 | 55 | 315 | 2.0 | 4.0 | 0.00 | 0.01 | 0.00 | 93 | 1015.4 |
| 20260506025334 | 55 | 315 | 2.0 | 4.0 | 0.00 | 0.01 | 0.00 | 93 | 1015.4 |
| 20260506025105 | 55 | 0 | 0.0 | 4.0 | 0.00 | 0.01 | 0.00 | 93 | 1015.5 |
| 20260506024817 | 55 | 0 | 0.0 | 4.0 | 0.00 | 0.01 | 0.00 | 93 | 1015.5 |
| 20260506024557 | 55 | 326 | 1.0 | 4.0 | 0.00 | 0.01 | 0.00 | 92 | 1015.4 |
| 20260506024300 | 55 | 0 | 0.0 | 4.0 | 0.00 | 0.01 | 0.00 | 92 | 1015.4 |
| 20260506024050 | 55 | 347 | 2.0 | 6.0 | 0.00 | 0.01 | 0.00 | 92 | 1015.4 |
| 20260506023743 | 55 | 299 | 4.0 | 6.0 | 0.00 | 0.01 | 0.00 | 92 | 1015.4 |
| 20260506023543 | 55 | 330 | 1.0 | 6.0 | 0.00 | 0.01 | 0.00 | 92 | 1015.3 |
| 20260506023226 | 56 | 323 | 2.0 | 6.0 | 0.00 | 0.01 | 0.00 | 92 | 1015.4 |
| 20260506022709 | 56 | 8 | 3.0 | 6.0 | 0.00 | 0.01 | 0.00 | 91 | 1015.3 |
| 20260506022529 | 56 | 8 | 3.0 | 6.0 | 0.00 | 0.01 | 0.00 | 91 | 1015.4 |
| 20260506022152 | 56 | 357 | 5.0 | 6.0 | 0.00 | 0.01 | 0.00 | 91 | 1015.4 |
| 20260506022022 | 56 | 357 | 3.0 | 6.0 | 0.00 | 0.01 | 0.00 | 91 | 1015.4 |
| 20260506021635 | 56 | 348 | 2.0 | 4.0 | 0.00 | 0.01 | 0.00 | 91 | 1015.4 |
| 20260506021515 | 56 | 348 | 4.0 | 4.0 | 0.00 | 0.01 | 0.00 | 91 | 1015.4 |
| 20260506021118 | 57 | 0 | 0.0 | 7.0 | 0.00 | 0.01 | 0.00 | 91 | 1015.4 |
| 20260506021008 | 57 | 0 | 0.0 | 7.0 | 0.00 | 0.01 | 0.00 | 90 | 1015.3 |
| 20260506020601 | 57 | 12 | 1.0 | 7.0 | 0.00 | 0.01 | 0.00 | 90 | 1015.3 |
| 20260506020501 | 56 | 0 | 0.0 | 7.0 | 0.00 | 0.01 | 0.00 | 90 | 1015.3 |
| 20260506020044 | 56 | 287 | 3.0 | 7.0 | 0.00 | 0.01 | 0.00 | 90 | 1015.2 |
| 20260506015954 | 57 | 29 | 3.0 | 7.0 | 0.00 | 0.01 | 0.00 | 90 | 1015.3 |
| 20260506015527 | 57 | 316 | 5.0 | 7.0 | 0.00 | 0.01 | 0.00 | 89 | 1015.2 |
| 20260506015447 | 57 | 316 | 3.0 | 7.0 | 0.00 | 0.01 | 0.00 | 89 | 1015.2 |
| 20260506015010 | 57 | 23 | 2.0 | 5.0 | 0.00 | 0.01 | 0.00 | 89 | 1015.3 |
| 20260506014940 | 57 | 23 | 2.0 | 5.0 | 0.00 | 0.01 | 0.00 | 89 | 1015.3 |
| 20260506014453 | 57 | 298 | 1.0 | 5.0 | 0.00 | 0.01 | 0.00 | 89 | 1015.3 |
| 20260506014433 | 57 | 298 | 1.0 | 5.0 | 0.00 | 0.01 | 0.00 | 89 | 1015.3 |
| 20260506013936 | 57 | 0 | 0.0 | 3.0 | 0.00 | 0.01 | 0.00 | 89 | 1015.3 |
| 20260506013926 | 57 | 0 | 0.0 | 3.0 | 0.00 | 0.01 | 0.00 | 89 | 1015.3 |
| 20260506013419 | 58 | 0 | 0.0 | 6.0 | 0.00 | 0.01 | 0.00 | 89 | 1015.4 |
| 20260506012912 | 58 | 0 | 0.0 | 6.0 | 0.00 | 0.01 | 0.00 | 88 | 1015.3 |
| 20260506012902 | 58 | 0 | 0.0 | 6.0 | 0.00 | 0.01 | 0.00 | 88 | 1015.3 |
| 20260506012405 | 58 | 0 | 0.0 | 6.0 | 0.00 | 0.01 | 0.00 | 88 | 1015.4 |
| 20260506012345 | 58 | 0 | 0.0 | 6.0 | 0.00 | 0.01 | 0.00 | 88 | 1015.4 |
| 20260506011858 | 58 | 0 | 0.0 | 6.0 | 0.00 | 0.01 | 0.00 | 87 | 1015.3 |
| 20260506011829 | 58 | 0 | 0.0 | 6.0 | 0.00 | 0.01 | 0.00 | 88 | 1015.3 |
| 20260506011352 | 58 | 333 | 5.0 | 5.0 | 0.00 | 0.01 | 0.00 | 88 | 1015.4 |
| 20260506011311 | 58 | 0 | 0.0 | 3.0 | 0.00 | 0.01 | 0.00 | 88 | 1015.3 |
| 20260506010844 | 58 | 0 | 0.0 | 3.0 | 0.00 | 0.01 | 0.00 | 88 | 1015.2 |
| 20260506010754 | 58 | 306 | 1.0 | 3.0 | 0.00 | 0.01 | 0.00 | 88 | 1015.3 |
| 20260506010237 | 58 | 306 | 3.0 | 7.0 | 0.00 | 0.01 | 0.00 | 88 | 1015.3 |
| 20260506005830 | 58 | 340 | 4.0 | 7.0 | 0.00 | 0.01 | 0.00 | 88 | 1015.3 |
| 20260506005720 | 58 | 306 | 3.0 | 7.0 | 0.00 | 0.01 | 0.00 | 88 | 1015.3 |
| 20260506005323 | 58 | 306 | 5.0 | 7.0 | 0.00 | 0.01 | 0.00 | 87 | 1015.3 |
| 20260506005203 | 58 | 296 | 3.0 | 7.0 | 0.00 | 0.01 | 0.00 | 87 | 1015.4 |
| 20260506004646 | 58 | 5 | 5.0 | 7.0 | 0.00 | 0.01 | 0.00 | 86 | 1015.4 |
| 20260506004309 | 58 | 308 | 6.0 | 7.0 | 0.00 | 0.01 | 0.00 | 86 | 1015.4 |
| 20260506004129 | 58 | 322 | 3.0 | 7.0 | 0.00 | 0.01 | 0.00 | 86 | 1015.4 |
| 20260506003802 | 58 | 0 | 0.0 | 7.0 | 0.00 | 0.01 | 0.00 | 85 | 1015.4 |
| 20260506003612 | 59 | 296 | 5.0 | 7.0 | 0.00 | 0.01 | 0.00 | 85 | 1015.5 |
| 20260506003056 | 59 | 312 | 3.0 | 6.0 | 0.00 | 0.01 | 0.00 | 85 | 1015.4 |
| 20260506002748 | 59 | 329 | 4.0 | 4.0 | 0.00 | 0.01 | 0.00 | 85 | 1015.5 |
| 20260506002538 | 59 | 329 | 2.0 | 4.0 | 0.00 | 0.01 | 0.00 | 85 | 1015.5 |
| 20260506002241 | 59 | 357 | 2.0 | 8.0 | 0.00 | 0.01 | 0.00 | 85 | 1015.5 |
| 20260506002021 | 59 | 0 | 0.0 | 8.0 | 0.00 | 0.01 | 0.00 | 85 | 1015.5 |
| 20260506001734 | 59 | 16 | 2.0 | 8.0 | 0.00 | 0.01 | 0.00 | 85 | 1015.4 |
| 20260506001504 | 59 | 0 | 0.0 | 8.0 | 0.00 | 0.01 | 0.00 | 85 | 1015.3 |
| 20260506001227 | 59 | 322 | 2.0 | 8.0 | 0.00 | 0.01 | 0.00 | 84 | 1015.3 |
| 20260506000947 | 59 | 257 | 1.0 | 8.0 | 0.00 | 0.01 | 0.00 | 84 | 1015.3 |
| 20260506000720 | 59 | 333 | 6.0 | 8.0 | 0.00 | 0.01 | 0.00 | 84 | 1015.3 |
| 20260506000431 | 59 | 333 | 6.0 | 8.0 | 0.00 | 0.01 | 0.00 | 84 | 1015.3 |
| 20260506000213 | 60 | 295 | 4.0 | 5.0 | 0.00 | 0.01 | 0.01 | 84 | 1015.4 |
| 20260505235913 | 60 | 0 | 0.0 | 4.0 | 0.00 | 0.01 | 0.01 | 84 | 1015.4 |
| 20260505235706 | 60 | 0 | 0.0 | 4.0 | 0.00 | 0.01 | 0.01 | 84 | 1015.4 |
| 20260505235356 | 60 | 0 | 0.0 | 4.0 | 0.00 | 0.01 | 0.01 | 84 | 1015.4 |
| 20260505235159 | 60 | 0 | 0.0 | 4.0 | 0.00 | 0.01 | 0.01 | 85 | 1015.4 |
| 20260505234839 | 60 | 0 | 0.0 | 4.0 | 0.00 | 0.01 | 0.01 | 84 | 1015.3 |
| 20260505234322 | 60 | 357 | 3.0 | 3.0 | 0.00 | 0.01 | 0.01 | 85 | 1015.4 |
| 20260505234145 | 60 | 0 | 0.0 | 8.0 | 0.00 | 0.01 | 0.01 | 85 | 1015.5 |
| 20260505233805 | 59 | 0 | 0.0 | 8.0 | 0.00 | 0.01 | 0.01 | 84 | 1015.5 |
| 20260505233638 | 59 | 7 | 3.0 | 8.0 | 0.00 | 0.01 | 0.01 | 84 | 1015.5 |
| 20260505233248 | 59 | 351 | 2.0 | 8.0 | 0.00 | 0.01 | 0.01 | 83 | 1015.6 |
| 20260505233131 | 59 | 351 | 2.0 | 8.0 | 0.00 | 0.01 | 0.01 | 83 | 1015.6 |
| 20260505232732 | 59 | 317 | 4.0 | 8.0 | 0.00 | 0.01 | 0.01 | 82 | 1015.6 |
| 20260505232624 | 60 | 317 | 6.0 | 8.0 | 0.00 | 0.01 | 0.01 | 81 | 1015.6 |
| 20260505232214 | 60 | 338 | 3.0 | 7.0 | 0.00 | 0.01 | 0.01 | 81 | 1015.7 |
| 20260505232120 | 60 | 338 | 3.0 | 7.0 | 0.00 | 0.01 | 0.01 | 81 | 1015.7 |
| 20260505231610 | 61 | 312 | 6.0 | 7.0 | 0.00 | 0.01 | 0.01 | 81 | 1015.7 |
| 20260505231141 | 61 | 336 | 2.0 | 5.0 | 0.00 | 0.01 | 0.01 | 82 | 1015.7 |
| 20260505231103 | 61 | 0 | 0.0 | 5.0 | 0.00 | 0.01 | 0.01 | 82 | 1015.7 |
| 20260505230623 | 61 | 327 | 1.0 | 5.0 | 0.00 | 0.01 | 0.01 | 82 | 1015.7 |
| 20260505230556 | 61 | 327 | 1.0 | 5.0 | 0.00 | 0.01 | 0.01 | 82 | 1015.8 |
| 20260505230106 | 61 | 319 | 2.0 | 5.0 | 0.00 | 0.01 | 0.01 | 81 | 1015.7 |
| 20260505230049 | 61 | 319 | 4.0 | 6.0 | 0.00 | 0.01 | 0.01 | 81 | 1015.6 |
| 20260505225549 | 61 | 214 | 1.0 | 6.0 | 0.00 | 0.01 | 0.01 | 82 | 1015.6 |
| 20260505225542 | 61 | 214 | 1.0 | 6.0 | 0.00 | 0.01 | 0.01 | 82 | 1015.6 |
| 20260505225032 | 61 | 330 | 2.0 | 6.0 | 0.00 | 0.01 | 0.01 | 81 | 1015.6 |
| 20260505224528 | 61 | 330 | 4.0 | 6.0 | 0.00 | 0.01 | 0.01 | 81 | 1015.7 |
| 20260505224515 | 61 | 271 | 3.0 | 6.0 | 0.00 | 0.01 | 0.01 | 81 | 1015.7 |
| 20260505224021 | 60 | 261 | 3.0 | 6.0 | 0.00 | 0.01 | 0.01 | 82 | 1015.8 |
| 20260505223958 | 61 | 261 | 4.0 | 6.0 | 0.00 | 0.01 | 0.01 | 82 | 1015.8 |
| 20260505223441 | 60 | 281 | 3.0 | 6.0 | 0.00 | 0.01 | 0.01 | 82 | 1015.8 |
| 20260505223007 | 60 | 315 | 5.0 | 5.0 | 0.00 | 0.01 | 0.01 | 82 | 1015.8 |
| 20260505222924 | 60 | 0 | 0.0 | 5.0 | 0.00 | 0.01 | 0.01 | 82 | 1015.9 |
| 20260505222500 | 60 | 323 | 2.0 | 5.0 | 0.00 | 0.01 | 0.01 | 82 | 1015.9 |
| 20260505222407 | 60 | 270 | 3.0 | 5.0 | 0.00 | 0.01 | 0.01 | 82 | 1015.9 |
| 20260505221953 | 60 | 312 | 2.0 | 5.0 | 0.00 | 0.01 | 0.01 | 82 | 1016.0 |
| 20260505221850 | 60 | 0 | 0.0 | 5.0 | 0.00 | 0.01 | 0.01 | 82 | 1016.0 |
| 20260505221446 | 60 | 285 | 1.0 | 5.0 | 0.00 | 0.01 | 0.01 | 82 | 1016.1 |
| 20260505221333 | 60 | 285 | 1.0 | 5.0 | 0.00 | 0.01 | 0.01 | 82 | 1016.0 |
| 20260505220939 | 60 | 280 | 2.0 | 5.0 | 0.00 | 0.01 | 0.01 | 82 | 1015.9 |
| 20260505220816 | 60 | 0 | 0.0 | 5.0 | 0.00 | 0.01 | 0.01 | 82 | 1015.8 |
| 20260505220432 | 60 | 0 | 0.0 | 5.0 | 0.00 | 0.01 | 0.01 | 83 | 1015.9 |
| 20260505220259 | 60 | 224 | 1.0 | 5.0 | 0.00 | 0.01 | 0.01 | 83 | 1016.0 |
| 20260505215742 | 59 | 310 | 2.0 | 5.0 | 0.00 | 0.01 | 0.01 | 83 | 1015.9 |
| 20260505215418 | 59 | 310 | 4.0 | 5.0 | 0.00 | 0.01 | 0.01 | 83 | 1016.0 |
| 20260505215225 | 60 | 316 | 2.0 | 4.0 | 0.00 | 0.01 | 0.01 | 83 | 1016.0 |
| 20260505214911 | 60 | 295 | 3.0 | 4.0 | 0.00 | 0.01 | 0.01 | 82 | 1016.1 |
| 20260505214708 | 59 | 312 | 2.0 | 4.0 | 0.00 | 0.01 | 0.01 | 82 | 1016.1 |
| 20260505214404 | 60 | 0 | 0.0 | 4.0 | 0.00 | 0.01 | 0.01 | 83 | 1016.1 |
| 20260505214154 | 60 | 259 | 2.0 | 4.0 | 0.00 | 0.01 | 0.01 | 82 | 1016.1 |
| 20260505213857 | 60 | 296 | 4.0 | 4.0 | 0.00 | 0.01 | 0.01 | 82 | 1016.1 |
| 20260505213634 | 60 | 0 | 0.0 | 0.0 | 0.00 | 0.01 | 0.01 | 83 | 1016.1 |
| 20260505213350 | 60 | 0 | 0.0 | 0.0 | 0.00 | 0.01 | 0.01 | 83 | 1016.2 |
| 20260505213118 | 60 | 0 | 0.0 | 0.0 | 0.00 | 0.01 | 0.01 | 83 | 1016.2 |
| 20260505212843 | 60 | 0 | 0.0 | 0.0 | 0.00 | 0.01 | 0.01 | 82 | 1016.1 |
| 20260505212600 | 60 | 0 | 0.0 | 6.0 | 0.00 | 0.01 | 0.01 | 83 | 1016.1 |
| 20260505212043 | 60 | 0 | 0.0 | 6.0 | 0.00 | 0.01 | 0.01 | 83 | 1016.1 |
| 20260505211829 | 60 | 0 | 0.0 | 6.0 | 0.00 | 0.01 | 0.01 | 83 | 1016.1 |
| 20260505211526 | 59 | 323 | 1.0 | 6.0 | 0.00 | 0.01 | 0.01 | 82 | 1016.2 |
| 20260505211322 | 60 | 323 | 1.0 | 6.0 | 0.00 | 0.01 | 0.01 | 82 | 1016.2 |
| 20260505211009 | 60 | 312 | 3.0 | 6.0 | 0.00 | 0.01 | 0.01 | 82 | 1016.2 |
| 20260505210815 | 60 | 0 | 0.0 | 4.0 | 0.00 | 0.01 | 0.01 | 82 | 1016.2 |
| 20260505210452 | 60 | 270 | 3.0 | 4.0 | 0.00 | 0.01 | 0.01 | 82 | 1016.2 |
| 20260505210308 | 60 | 0 | 0.0 | 3.0 | 0.00 | 0.01 | 0.01 | 83 | 1016.1 |
| 20260505205935 | 60 | 0 | 0.0 | 4.0 | 0.00 | 0.01 | 0.01 | 83 | 1016.2 |
| 20260505205801 | 60 | 0 | 0.0 | 4.0 | 0.00 | 0.01 | 0.01 | 83 | 1016.2 |
| 20260505205418 | 60 | 0 | 0.0 | 4.0 | 0.00 | 0.01 | 0.01 | 83 | 1016.1 |
| 20260505204901 | 60 | 302 | 1.0 | 4.0 | 0.00 | 0.01 | 0.01 | 83 | 1016.2 |
| 20260505204747 | 60 | 309 | 2.0 | 4.0 | 0.00 | 0.01 | 0.01 | 83 | 1016.2 |
| 20260505204344 | 60 | 309 | 2.0 | 4.0 | 0.00 | 0.01 | 0.01 | 83 | 1016.2 |
| 20260505204240 | 60 | 319 | 2.0 | 4.0 | 0.00 | 0.01 | 0.01 | 83 | 1016.1 |
| 20260505203827 | 60 | 0 | 0.0 | 5.0 | 0.00 | 0.01 | 0.01 | 84 | 1016.0 |
| 20260505203733 | 60 | 275 | 1.0 | 5.0 | 0.00 | 0.01 | 0.01 | 84 | 1016.0 |
| 20260505203310 | 59 | 0 | 0.0 | 5.0 | 0.00 | 0.01 | 0.01 | 84 | 1016.0 |
| 20260505203226 | 59 | 0 | 0.0 | 5.0 | 0.00 | 0.01 | 0.01 | 84 | 1016.1 |
| 20260505202753 | 59 | 0 | 0.0 | 5.0 | 0.00 | 0.01 | 0.01 | 84 | 1016.1 |
| 20260505202719 | 59 | 0 | 0.0 | 5.0 | 0.00 | 0.01 | 0.01 | 84 | 1016.1 |
| 20260505202236 | 59 | 1 | 2.0 | 5.0 | 0.00 | 0.01 | 0.01 | 84 | 1016.0 |
| 20260505202212 | 59 | 1 | 5.0 | 5.0 | 0.00 | 0.01 | 0.01 | 84 | 1016.1 |
| 20260505201719 | 59 | 0 | 0.0 | 4.0 | 0.00 | 0.01 | 0.01 | 84 | 1016.1 |
| 20260505201705 | 59 | 0 | 0.0 | 4.0 | 0.00 | 0.01 | 0.01 | 84 | 1016.2 |
| 20260505201158 | 59 | 309 | 2.0 | 4.0 | 0.00 | 0.01 | 0.01 | 85 | 1016.3 |
| 20260505200645 | 59 | 0 | 0.0 | 3.0 | 0.00 | 0.01 | 0.01 | 85 | 1016.3 |
| 20260505200144 | 59 | 305 | 1.0 | 3.0 | 0.00 | 0.01 | 0.01 | 85 | 1016.3 |
| 20260505200128 | 59 | 305 | 1.0 | 3.0 | 0.00 | 0.01 | 0.01 | 85 | 1016.3 |
| 20260505195637 | 59 | 323 | 1.0 | 3.0 | 0.00 | 0.01 | 0.01 | 85 | 1016.3 |
| 20260505195611 | 59 | 323 | 1.0 | 3.0 | 0.00 | 0.01 | 0.01 | 85 | 1016.3 |
| 20260505195130 | 59 | 0 | 0.0 | 3.0 | 0.00 | 0.01 | 0.01 | 85 | 1016.3 |
| 20260505195054 | 59 | 0 | 0.0 | 3.0 | 0.00 | 0.01 | 0.01 | 85 | 1016.3 |
| 20260505194623 | 59 | 0 | 0.0 | 3.0 | 0.00 | 0.01 | 0.01 | 86 | 1016.3 |
| 20260505194118 | 59 | 0 | 0.0 | 3.0 | 0.00 | 0.01 | 0.01 | 85 | 1016.3 |
| 20260505194020 | 59 | 0 | 0.0 | 3.0 | 0.00 | 0.01 | 0.01 | 85 | 1016.3 |
| 20260505193609 | 58 | 197 | 0.0 | 1.0 | 0.00 | 0.01 | 0.01 | 85 | 1016.4 |
| 20260505193503 | 58 | 197 | 0.0 | 1.0 | 0.00 | 0.01 | 0.01 | 85 | 1016.4 |
| 20260505193102 | 59 | 0 | 0.0 | 0.0 | 0.00 | 0.01 | 0.01 | 85 | 1016.3 |
| 20260505192946 | 59 | 0 | 0.0 | 0.0 | 0.00 | 0.01 | 0.01 | 85 | 1016.3 |
| 20260505192429 | 59 | 0 | 0.0 | 0.0 | 0.00 | 0.01 | 0.01 | 86 | 1016.3 |
| 20260505192048 | 59 | 0 | 0.0 | 0.0 | 0.00 | 0.01 | 0.01 | 86 | 1016.2 |
| 20260505191912 | 59 | 0 | 0.0 | 0.0 | 0.00 | 0.01 | 0.01 | 86 | 1016.2 |
| 20260505191541 | 59 | 0 | 0.0 | 0.0 | 0.00 | 0.01 | 0.01 | 86 | 1016.2 |
| 20260505191355 | 58 | 0 | 0.0 | 0.0 | 0.00 | 0.01 | 0.01 | 87 | 1016.1 |
| 20260505191034 | 58 | 0 | 0.0 | 0.0 | 0.00 | 0.01 | 0.01 | 87 | 1016.1 |
| 20260505190838 | 58 | 0 | 0.0 | 0.0 | 0.00 | 0.01 | 0.01 | 87 | 1016.1 |
| 20260505190527 | 58 | 0 | 0.0 | 0.0 | 0.00 | 0.01 | 0.01 | 88 | 1016.1 |
| 20260505190321 | 58 | 0 | 0.0 | 0.0 | 0.00 | 0.01 | 0.01 | 88 | 1016.1 |
| 20260505190020 | 58 | 0 | 0.0 | 0.0 | 0.00 | 0.01 | 0.01 | 88 | 1016.1 |
| 20260505185804 | 58 | 0 | 0.0 | 0.0 | 0.00 | 0.01 | 0.01 | 89 | 1016.0 |
| 20260505185514 | 58 | 0 | 0.0 | 0.0 | 0.00 | 0.01 | 0.01 | 89 | 1016.0 |
| 20260505185247 | 58 | 0 | 0.0 | 0.0 | 0.00 | 0.01 | 0.01 | 89 | 1016.0 |
| 20260505185006 | 58 | 0 | 0.0 | 0.0 | 0.00 | 0.01 | 0.01 | 90 | 1016.1 |
| 20260505184730 | 58 | 0 | 0.0 | 0.0 | 0.00 | 0.01 | 0.01 | 90 | 1016.0 |
| 20260505184459 | 58 | 0 | 0.0 | 0.0 | 0.00 | 0.01 | 0.01 | 90 | 1016.1 |
| 20260505184213 | 58 | 0 | 0.0 | 0.0 | 0.00 | 0.01 | 0.01 | 90 | 1016.1 |
| 20260505183952 | 58 | 0 | 0.0 | 0.0 | 0.00 | 0.01 | 0.01 | 91 | 1016.1 |
| 20260505183656 | 57 | 0 | 0.0 | 0.0 | 0.00 | 0.01 | 0.01 | 91 | 1016.1 |
| 20260505183445 | 57 | 0 | 0.0 | 0.0 | 0.00 | 0.01 | 0.01 | 91 | 1016.1 |
| 20260505183139 | 57 | 0 | 0.0 | 0.0 | 0.00 | 0.01 | 0.01 | 91 | 1016.2 |
| 20260505182938 | 57 | 0 | 0.0 | 0.0 | 0.00 | 0.01 | 0.01 | 91 | 1016.2 |
| 20260505182622 | 57 | 0 | 0.0 | 0.0 | 0.00 | 0.01 | 0.01 | 92 | 1016.1 |
| 20260505182431 | 57 | 0 | 0.0 | 0.0 | 0.00 | 0.01 | 0.01 | 92 | 1016.0 |
| 20260505182105 | 57 | 0 | 0.0 | 0.0 | 0.00 | 0.01 | 0.01 | 92 | 1016.0 |
| 20260505181924 | 57 | 0 | 0.0 | 0.0 | 0.00 | 0.01 | 0.01 | 93 | 1016.0 |
| 20260505181548 | 57 | 0 | 0.0 | 0.0 | 0.00 | 0.01 | 0.01 | 93 | 1016.0 |
| 20260505181417 | 57 | 0 | 0.0 | 0.0 | 0.00 | 0.01 | 0.01 | 93 | 1016.0 |
| 20260505181031 | 57 | 0 | 0.0 | 0.0 | 0.00 | 0.01 | 0.01 | 93 | 1016.0 |
| 20260505180514 | 57 | 0 | 0.0 | 0.0 | 0.00 | 0.01 | 0.01 | 94 | 1015.9 |
| 20260505180403 | 57 | 0 | 0.0 | 0.0 | 0.00 | 0.01 | 0.01 | 94 | 1015.9 |
| 20260505175957 | 57 | 0 | 0.0 | 0.0 | 0.00 | 0.01 | 0.01 | 94 | 1015.9 |
| 20260505175856 | 57 | 0 | 0.0 | 0.0 | 0.00 | 0.01 | 0.01 | 94 | 1015.9 |
| 20260505175440 | 57 | 0 | 0.0 | 0.0 | 0.00 | 0.01 | 0.01 | 94 | 1015.9 |
| 20260505175349 | 57 | 0 | 0.0 | 0.0 | 0.00 | 0.01 | 0.01 | 94 | 1015.9 |
| 20260505174923 | 56 | 0 | 0.0 | 0.0 | 0.00 | 0.01 | 0.01 | 94 | 1015.9 |
| 20260505174842 | 56 | 0 | 0.0 | 0.0 | 0.00 | 0.01 | 0.01 | 94 | 1015.8 |
| 20260505174406 | 56 | 0 | 0.0 | 0.0 | 0.00 | 0.01 | 0.01 | 95 | 1015.9 |
| 20260505174335 | 56 | 0 | 0.0 | 0.0 | 0.00 | 0.01 | 0.01 | 95 | 1015.9 |
| 20260505173849 | 56 | 0 | 0.0 | 3.0 | 0.00 | 0.01 | 0.01 | 95 | 1015.9 |
| 20260505173828 | 56 | 0 | 0.0 | 3.0 | 0.00 | 0.01 | 0.01 | 95 | 1015.9 |